Hourly Weather Roundup
Issued by NWS Central Illinois

Home | Current Version | Previous Version | Text Only | Print | Product List | Glossary On
Versions: 1 2 3 4 5 6 7 8 9 10 11 12 13 14 15 16 17 18 19 20 21 22 23 24 25 26 27 28 29 30 31 32 33 34 35 36 37 38 39 40 41 42 43 44 45 46 47 48 49 50
000
NZUS43 KILX 240910
HWRILX

AREA WEATHER ROUNDUP
NATIONAL WEATHER SERVICE, LINCOLN IL
400 AM CDT FRI OCT 24 2014


CITY           SKY/WX    TMP DP  RH WIND       PRES   REMARKS
BLOOMINGTON    MOCLDY    49  46  89 SW5       30.07S
CHAMPAIGN      MOCLDY    50  47  89 S5        30.07S
DECATUR        CLOUDY    54  47  77 SW3       30.08S
FLORA          CLEAR     49  46  90 CALM      30.10S
GALESBURG      CLEAR     46  45  97 W3        30.06R FOG
JACKSONVILLE   CLOUDY    55  50  83 SW3       30.07S
LACON          CLEAR     46  44  91 CALM      30.05S
LAWRENCEVILLE  CLOUDY    50  48  93 S3        30.10F
LITCHFIELD     MOCLDY    55  47  76 SW6       30.07S
$$


CITY           SKY/WX    TMP DP  RH WIND       PRES   REMARKS
LINCOLN        MOCLDY    51  47  84 CALM      30.05S
MACOMB         MOCLDY    48  48  99 W6        30.08S FOG
MATTOON        CLOUDY    52  44  74 S7        30.07S
MT CARMEL AP   CLOUDY    52  48  87 CALM      30.10S
OLNEY-NOBLE AP CLOUDY    48  45  87 CALM      30.10S
PARIS          LGT RAIN  49  46  91 CALM      30.09F
PEORIA         CLEAR     52  45  77 S3        30.06S
PONTIAC        CLEAR     46  44  95 CALM      30.06S
RANTOUL        CLOUDY    51  48  89 SE3       30.07S
ROBINSON       CLOUDY    52  48  88 CALM      30.11S
SPRINGFIELD    MOCLDY    51  45  79 CALM      30.07S
TAYLORVILLE    PTCLDY    46  43  87 SW5       30.07R
$$

...REGIONAL REPORTS...


CITY           SKY/WX    TMP DP  RH WIND       PRES   REMARKS
CHICAGO O`HARE CLOUDY    53  44  71 SW7       30.04S
KANKAKEE       CLOUDY    51  47  87 S3        30.07S
MOLINE         CLOUDY    44  44 100 CALM      30.06S FOG
MOUNT VERNON   CLOUDY    48  45  87 CALM      30.10S
PITTSFIELD     CLEAR     55  51  89 W5        30.08S
QUINCY         FOG       55  54  96 W6        30.07S VSB 1/4
ROCKFORD       FOG       43  41  93 CALM      30.07R VSB 3/4
$$


CITY           SKY/WX    TMP DP  RH WIND       PRES   REMARKS
BURLINGTON     CLOUDY    54  52  93 CALM      30.06S
CEDAR RAPIDS   FOG       42  42 100 SE3       30.03F VSB 1/4
DES MOINES     FOG       53  52  96 S6        30.02F VSB 1/8
KIRKSVILLE     FOG       56  56 100 W6        30.07S VSB 1/4
OTTUMWA        FOG       51  51 100 SW3       30.04F VSB 1/4
ST LOUIS       PTCLDY    53  47  79 CALM      30.08F
$$


CITY           SKY/WX    TMP DP  RH WIND       PRES   REMARKS
TERRE HAUTE    CLOUDY    45  43  93 CALM      30.10S
EVANSVILLE     MOCLDY    43  41  93 CALM      30.12S
INDIANAPOLIS   MOCLDY    44  39  82 CALM      30.09S
LAFAYETTE      CLOUDY    47  42  83 CALM      30.08F
MADISON        CLOUDY    49  47  93 W6        30.04S FOG
MILWAUKEE      CLOUDY    51  49  92 W6        30.04R
$$





USA.gov is the U.S. government's official web portal to all federal, state and local government web resources and services.